This is the latest recevied weather packets stored in our database for station/object AE5TC. If no packets are shown the sender has not sent any weather packets the latest 10 day(s).
| Time | Temp. | Humidity | Pressure | Rain* | Wind** | Luminosity | Snow |
|---|---|---|---|---|---|---|---|
| 1778287850 | 22.22° C | 92% | 1013.3 hPa | 0 mm | - | 0 W/m² | - |
| 1778287547 | 22.78° C | 91% | 1013.6 hPa | 0 mm | - | 0 W/m² | - |
| 1778287244 | 22.78° C | 91% | 1013.3 hPa | 0 mm | - | 0 W/m² | - |
| 1778286943 | 22.78° C | 90% | 1013.1 hPa | 0 mm | - | 0 W/m² | - |
| 1778286639 | 23.33° C | 90% | 1013.2 hPa | 0 mm | - | 1 W/m² | - |
| 1778286336 | 23.33° C | 90% | 1013.3 hPa | 0 mm | - | 1 W/m² | - |
| 1778286034 | 23.33° C | 90% | 1013.1 hPa | 0 mm | - | 2 W/m² | - |
| 1778285726 | 23.89° C | 89% | 1012.8 hPa | 0 mm | - | 4 W/m² | - |
| 1778285421 | 23.89° C | 89% | 1012.8 hPa | 0 mm | - | 5 W/m² | - |
| 1778285120 | 23.89° C | 89% | 1013 hPa | 0 mm | - | 6 W/m² | - |
| 1778284815 | 24.44° C | 89% | 1012.6 hPa | 0 mm | - | 10 W/m² | - |
| 1778284514 | 24.44° C | 89% | 1012.7 hPa | 0 mm | - | 13 W/m² | - |
| 1778284209 | 25° C | 93% | 1012.7 hPa | 0 mm | - | 17 W/m² | - |
| 1778283907 | 25.56° C | 94% | 1012.7 hPa | 0 mm | - | 9 W/m² | - |
| 1778283603 | 25.56° C | 95% | 1012.7 hPa | 0 mm | - | 18 W/m² | - |
| 1778283298 | 25.56° C | 95% | 1012.6 hPa | 0 mm | - | 34 W/m² | - |
| 1778282994 | 25.56° C | 94% | 1012.7 hPa | 0 mm | - | 41 W/m² | - |
| 1778282691 | 25.56° C | 94% | 1012.8 hPa | 0 mm | - | 42 W/m² | - |
| 1778282388 | 25.56° C | 95% | 1012.8 hPa | 0 mm | - | 52 W/m² | - |
| 1778282086 | 26.11° C | 94% | 1012.9 hPa | 0 mm | - | 64 W/m² | - |
| 1778281782 | 26.11° C | 94% | 1013 hPa | 0 mm | - | 61 W/m² | - |
| 1778281479 | 26.11° C | 94% | 1012.9 hPa | 0 mm | - | 52 W/m² | - |
| 1778281176 | 26.11° C | 93% | 1012.8 hPa | 0 mm | - | 52 W/m² | - |
| 1778280873 | 26.11° C | 93% | 1012.7 hPa | 0 mm | - | 55 W/m² | - |
| 1778280570 | 26.67° C | 92% | 1012.7 hPa | 0 mm | - | 64 W/m² | - |
* Rain latest hour (hover to see other rain measurements)
** Current wind speed in m/s (hover to see current wind gust speed)